Find Starlink 31073

NORAD ID: 58773 Int'l Des: 2024-011 Owner: SPXS Country: US Constellation: starlink operational
LEOCIRCULAR

Current View

Loading 3D Globe...

About Starlink 31073

Starlink 31073 (NORAD 58773) is a starlink constellation satellite (v2 mini) launched Jan 14, 2024 by SPXS of US. It operates in LEO, CIRCULAR orbit with a mass of 730.00 kg.

About Starlink 31073

Description loading...

Upcoming Passes

Passes for default location (London). Set your location on the main map for personalized predictions.

Altitude History

Loading altitude history...

Two-Line Element Set

1 58773U 24011J 26168.84551084 .00001784 00000-0 72352-4 0 9999
2 58773 53.1609 268.5352 0001132 89.4581 270.6549 15.30198940135607
Epoch: Jun 17, 2026 • Age: 12 hours

Current Status

Altitude 485.9 km
Velocity 7.62 km/s
Sub-Earth Point -32.54°S, 158.59°W
Launch Date Jan 14, 2024
Age 2.4 years
Type internet

Technical Details

Classification Payload
Mass 730.00 kg
Dry Mass 700.00 kg
Total Mass 730.00 kg
Length 0.30 m
Diameter 4.10 m
Span 29.00 m
Shape Box + pan
Manufacturer SPXS
Bus Type Starlink V2M
Phase Status In Orbit
Owner/State SPXS/US

Most Searched